Regional Weather Roundup
Issued by NWS

Home | Current Version | Previous Version | Text Only | Print | Product List | Glossary On
Versions: 1 2 3 4 5 6 7 8 9 10 11 12 13 14 15 16 17 18 19 20 21 22 23 24 25 26 27 28 29 30 31 32 33 34 35 36 37 38 39 40 41 42 43 44 45 46 47 48 49 50
000
ASUS43 KLSX 222157
RWRMO

WEATHER SUMMARY FOR MISSOURI
NATIONAL WEATHER SERVICE SPRINGFIELD MO
500 PM CDT SUN OCT 22 2017

NOTE: "FAIR" INDICATES FEW OR NO CLOUDS BELOW 12,000 FEET WITH NO
       SIGNIFICANT WEATHER AND/OR OBSTRUCTIONS TO VISIBILITY.
       CURRENT SKY AND/OR WEATHER CONDITIONS ARE NOT AVAILABLE FOR
       CHILLICOTHE AND FARMINGTON.

MOZ001>031-035>038-043-044-053-054-222300-
...NORTHERN AND WESTERN MISSOURI...

CITY           SKY/WX    TMP DP  RH WIND       PRES   REMARKS
KANSAS CTY INT MOSUNNY   65  38  36 VRB3      30.09F
LEE`S SUMMIT   MOSUNNY   64  38  38 N7        30.10F
ST JOSEPH      SUNNY     69  33  26 W3        30.08S
CHILLICOTHE      N/A     60  49  66 CALM      30.10F

$$
MOZ066>068-077>081-088>096-101>105-222300-
...SOUTHWEST MISSOURI...

CITY           SKY/WX    TMP DP  RH WIND       PRES   REMARKS
SPRINGFIELD    CLOUDY    52  50  93 N8        30.10F
JOPLIN         SUNNY     63  44  50 N7        30.11F
BRANSON        LGT RAIN  50  48  93 NW10      30.11F

$$
MOZ032>034-039>042-045>050-055>058-069>072-222300-
...CENTRAL MISSOURI...

CITY           SKY/WX    TMP DP  RH WIND       PRES   REMARKS
COLUMBIA       NOT AVBL
JEFFERSON CITY LGT RAIN  54  50  86 W6        30.10F
ROLLA          RAIN      50  50 100 NW10      30.09S FOG
SEDALIA        CLOUDY    58  51  78 CALM      30.12S
WARRENSBURG    CLOUDY    59  46  63 CALM      30.11S

$$
MOZ051-052-059>065-222300-
...EAST CENTRAL MISSOURI...

CITY           SKY/WX    TMP DP  RH WIND       PRES   REMARKS
ST LOUIS INTL  CLOUDY    56  51  84 N9        30.04F

$$
MOZ072>076-082>087-097>100-106>115-222300-
...SOUTH CENTRAL AND SOUTHEAST MISSOURI...

CITY           SKY/WX    TMP DP  RH WIND       PRES   REMARKS
CAPE GIRARDEAU HVY RAIN  60  56  86 N22G29    29.97R FOG
POPLAR BLUFF   RAIN      60  58  92 NW15G23   29.96R FOG
WEST PLAINS    RAIN      53  51  93 N8        30.06S FOG

$$



USA.gov is the U.S. government's official web portal to all federal, state and local government web resources and services.